Hatteras, NC

9:44 AM EDT on April 24, 2018 (GMT -0400)
Mitchell

Weather History for KHSE - March, 2013

Change the Weather History Date:

Tuesday, March 26, 2013

  Actual Average Record
Temperature  
Mean Temperature 47 °F 54 °F  
Max Temperature 52 °F 61 °F 78 °F (2017)
Min Temperature 42 °F 47 °F 29 °F (1981)
Degree Days  
Heating Degree Days 18 11  
Month to date heating degree days 410 366  
Since 1 July heating degree days 2142 2290  
Cooling Degree Days 0 0  
Month to date cooling degree days 0 0  
Year to date cooling degree days 0 0  
Moisture  
Dew Point 30 °F    
Average Humidity 51    
Maximum Humidity 60    
Minimum Humidity 41    
Precipitation  
Precipitation 0.00 in 0.17 in 3.48 in (1992)
Month to date precipitation 2.22 3.97  
Year to date precipitation 11.95 13.23  
Snow  
Snow 0.00 in - - ()
Month to date snowfall 0.0  
Since 1 July snowfall 0.0  
Snow Depth 0.00 in    
Sea Level Pressure  
Sea Level Pressure 29.89 in    
Wind  
Wind Speed 11 mph (NW)    
Max Wind Speed 21 mph    
Max Gust Speed 31 mph    
Visibility 10 miles    
Events      
T = Trace of Precipitation, MM = Missing Value Source: NWS Daily Summary

Daily Weather History Graph

Daily Weather History Graph

Search for Another Location

Airport or City:

Astronomy

Mar. 26, 2013 Rise Set
Actual Time 6:57 AM EDT 7:19 PM EDT
Civil Twilight 6:31 AM EDT 7:44 PM EDT
Nautical Twilight 6:02 AM EDT 8:14 PM EDT
Astronomical Twilight 5:31 AM EDT 8:44 PM EDT
Moon 6:53 PM EDT (3/26) 6:11 AM EDT (3/26)
Length of Visible Light 13h 12m
Length of Day
12h 21m
Waxing Gibbous, 99% of the Moon is Illuminated
Mar 26
Waxing Gibbous
Mar 27
Full
Apr 3
Last Quarter
Apr 10
New
Apr 18
First Quarter

Hourly Weather History & Observations

Time (EDT) Temp. Windchill Dew Point Humidity Pressure Visibility Wind Dir Wind Speed Gust Speed Precip Events Conditions
12:51 AM 46.9 °F - 28.0 °F 48% 29.76 in 10.0 mi WNW 12.7 mph 27.6 mph N/A   Mostly Cloudy
1:51 AM 45.0 °F 37.1 °F 27.0 °F 49% 29.78 in 10.0 mi WNW 19.6 mph 28.8 mph N/A   Clear
2:51 AM 44.1 °F 37.1 °F 28.0 °F 53% 29.79 in 10.0 mi WNW 15.0 mph 26.5 mph N/A   Clear
3:51 AM 44.1 °F 37.4 °F 28.0 °F 53% 29.80 in 10.0 mi NW 13.8 mph 26.5 mph N/A   Clear
4:51 AM 42.1 °F 34.5 °F 27.0 °F 55% 29.82 in 10.0 mi WNW 15.0 mph 24.2 mph N/A   Clear
5:51 AM 42.1 °F 34.5 °F 28.0 °F 58% 29.84 in 10.0 mi WNW 15.0 mph 25.3 mph N/A   Clear
6:51 AM 42.1 °F 34.9 °F 28.0 °F 58% 29.85 in 10.0 mi WNW 13.8 mph 21.9 mph N/A   Clear
7:51 AM 43.0 °F 36.0 °F 28.0 °F 56% 29.87 in 10.0 mi NW 13.8 mph 19.6 mph N/A   Clear
8:51 AM 44.1 °F 38.1 °F 28.9 °F 55% 29.88 in 10.0 mi NW 11.5 mph 20.7 mph N/A   Clear
9:51 AM 46.0 °F 41.0 °F 30.9 °F 56% 29.89 in 10.0 mi NW 10.4 mph 18.4 mph N/A   Clear
10:51 AM 46.9 °F - 30.0 °F 52% 29.90 in 10.0 mi WNW 9.2 mph 16.1 mph N/A   Clear
11:51 AM 48.0 °F - 28.9 °F 48% 29.91 in 10.0 mi NW 8.1 mph - N/A   Clear
12:51 PM 48.9 °F - 28.0 °F 44% 29.91 in 10.0 mi NW 4.6 mph - N/A   Clear
1:51 PM 51.1 °F - 28.9 °F 43% 29.89 in 10.0 mi West 9.2 mph - N/A   Clear
2:51 PM 50.0 °F - 28.9 °F 44% 29.89 in 10.0 mi West 8.1 mph - N/A   Overcast
3:51 PM 48.9 °F - 30.0 °F 48% 29.88 in 10.0 mi West 8.1 mph - N/A   Overcast
4:51 PM 48.0 °F - 32.0 °F 54% 29.90 in 10.0 mi WNW 8.1 mph 17.3 mph N/A   Overcast
5:51 PM 48.9 °F - 30.9 °F 50% 29.92 in 10.0 mi NW 5.8 mph - N/A   Overcast
6:51 PM 48.9 °F - 30.0 °F 48% 29.94 in 10.0 mi NW 8.1 mph - N/A   Overcast
7:51 PM 48.9 °F - 30.9 °F 50% 29.96 in 10.0 mi NW 8.1 mph - N/A   Overcast
8:51 PM 48.0 °F - 32.0 °F 54% 29.99 in 10.0 mi NW 9.2 mph - N/A   Partly Cloudy
9:51 PM 46.9 °F - 32.0 °F 56% 30.01 in 10.0 mi NW 9.2 mph - N/A   Clear
10:51 PM 46.9 °F - 33.1 °F 59% 30.02 in 10.0 mi NW 10.4 mph 18.4 mph N/A   Clear
11:51 PM 46.0 °F 41.4 °F 33.1 °F 61% 30.03 in 10.0 mi NW 9.2 mph 17.3 mph N/A   Scattered Clouds